Voltar ao catálogo

FENGYUN 1C DEB

AtivoSSO
NORAD 32161·DEBRIS·🇨🇳 China

Lançado May 10, 1999 de Taiyuan Satellite Launch Center

Loading…

Próximas Passagens (próximas 24 horas)

TLE

AtualizadoSource: Space-Track

Época: Sep 14, 2026, 13:14 UTC

1 32161U 99025CTF 26257.55174447  .00000262  00000-0  18484-3 0  9995
2 32161  98.8409 358.7001 0134563 231.3480 127.5582 14.02104310672944

Acompanhe FENGYUN 1C DEB em tempo real com AllMySat

Download on the App Store